Weather History for Ohio State University, OH

Change the Weather History Date:

Thursday, November 22, 2012

  Actual Average Record
Temperature  
Mean Temperature 49 °F -  
Max Temperature 63 °F 47 °F 69 °F (2010)
Min Temperature 35 °F 32 °F 14 °F (2008)
Degree Days  
Heating Degree Days 16    
Moisture  
Dew Point 38 °F    
Average Humidity 70    
Maximum Humidity 97    
Minimum Humidity 41    
Precipitation  
Precipitation 0.00 in - - ()
Sea Level Pressure  
Sea Level Pressure 30.14 in    
Wind  
Wind Speed 3 mph (South)    
Max Wind Speed 14 mph    
Max Gust Speed 20 mph    
Visibility 8 miles    
Events      
Averages and records for this station are not official NWS values.
T = Trace of Precipitation, MM = Missing Value Source: NWS Daily Summary

Daily Weather History Graph

Daily Weather History Graph

Search for Another Location

Airport:

Trip Planner

Search our weather history database for the weather conditions in past years. The results will help you decide how hot, cold, wet, or windy it might be!

Date:

Astronomy

Nov. 22, 2012 Rise Set
Actual Time 7:26 AM EST 5:10 PM EST
Civil Twilight 6:56 AM EST 5:40 PM EST
Nautical Twilight 6:23 AM EST 6:13 PM EST
Astronomical Twilight 5:50 AM EST 6:45 PM EST
Moon 1:55 PM EST (11/22) 1:44 AM EST (11/22)
Length of Visible Light 10h 43m
Length of Day
9h 44m
Waxing Gibbous, 71% of the Moon is Illuminated
Nov 22
Waxing Gibbous
Nov 28
Full
Dec 6
Last Quarter
Dec 13
New
Dec 20
First Quarter

Hourly Weather History & Observations

Time (EST) Temp. Windchill Dew Point Humidity Pressure Visibility Wind Dir Wind Speed Gust Speed Precip Events Conditions
12:53 AM 37.9 °F - 36.0 °F 93% 30.22 in 7.0 mi Calm Calm - N/A   Clear
1:53 AM 37.9 °F - 37.0 °F 97% 30.22 in 7.0 mi Calm Calm - N/A   Clear
2:53 AM 37.9 °F - 35.1 °F 89% 30.22 in 5.0 mi Calm Calm - N/A   Clear
3:53 AM 36.0 °F - 35.1 °F 97% 30.22 in 3.0 mi Calm Calm - N/A   Clear
4:53 AM 36.0 °F 33.3 °F 35.1 °F 97% 30.22 in 6.0 mi SE 3.5 mph - N/A   Clear
5:53 AM 36.0 °F - 35.1 °F 97% 30.23 in 5.0 mi Calm Calm - N/A   Clear
6:53 AM 36.0 °F - 35.1 °F 97% 30.23 in 5.0 mi Calm Calm - N/A   Clear
7:53 AM 35.1 °F - 34.0 °F 96% 30.24 in 4.0 mi Calm Calm - N/A   Clear
8:53 AM 41.0 °F - 37.9 °F 89% 30.24 in 5.0 mi Calm Calm - N/A   Clear
9:53 AM 48.0 °F - 39.0 °F 71% 30.22 in 8.0 mi South 4.6 mph - N/A   Clear
10:53 AM 52.0 °F - 39.9 °F 63% 30.21 in 10.0 mi SSW 6.9 mph - N/A   Clear
11:53 AM 57.9 °F - 39.9 °F 51% 30.18 in 10.0 mi SSW 8.1 mph - N/A   Clear
12:53 PM 61.0 °F - 41.0 °F 48% 30.14 in 10.0 mi South 12.7 mph - N/A   Clear
1:53 PM 62.1 °F - 39.9 °F 44% 30.11 in 10.0 mi South 12.7 mph - N/A   Clear
2:53 PM 63.0 °F - 39.0 °F 41% 30.09 in 10.0 mi SW 13.8 mph 19.6 mph N/A   Clear
3:53 PM 62.1 °F - 39.0 °F 43% 30.09 in 10.0 mi South 11.5 mph - N/A   Clear
4:53 PM 57.9 °F - 37.9 °F 47% 30.09 in 10.0 mi South 6.9 mph - N/A   Clear
5:53 PM 55.0 °F - 37.9 °F 53% 30.08 in 10.0 mi South 6.9 mph - N/A   Clear
6:53 PM 54.0 °F - 37.9 °F 55% 30.06 in 10.0 mi South 8.1 mph - N/A   Clear
7:53 PM 53.1 °F - 37.9 °F 57% 30.05 in 10.0 mi South 5.8 mph - N/A   Clear
8:53 PM 52.0 °F - 37.9 °F 59% 30.04 in 10.0 mi South 6.9 mph - N/A   Clear
9:53 PM 51.1 °F - 37.9 °F 61% 30.02 in 10.0 mi SSW 6.9 mph - N/A   Clear
10:53 PM 50.0 °F - 39.0 °F 66% 30.01 in 10.0 mi South 6.9 mph - N/A   Clear
11:53 PM 48.9 °F - 39.9 °F 71% 29.99 in 10.0 mi SSW 6.9 mph - N/A   Clear